Regional Weather Roundup
Issued by NWS

Home | Current Version | Previous Version | Graphics & Text | Print | Product List | Glossary On
Versions: 1 2 3 4 5 6 7 8 9 10 11 12 13 14 15 16 17 18 19 20 21 22 23 24 25 26 27
000
ASUS45 KTFX 241110
RWRMT
MONTANA REGIONAL WEATHER ROUNDUP
NATIONAL WEATHER SERVICE GREAT FALLS MT
500 AM MDT FRI MAR 24 2017

NOTE: "FAIR" INDICATES FEW OR NO CLOUDS BELOW 12000 FEET WITH NO
SIGNIFICANT WEATHER AND/OR OBSTRUCTIONS TO VISIBILITY.

MTZ001>007-043-241200-
WEST OF THE DIVIDE

CITY           SKY/WX    TMP DP  RH WIND       PRES   REMARKS
KALISPELL      CLEAR     23  21  92 CALM      30.03F
MISSOULA       CLEAR     27  24  89 CALM      30.07F
BUTTE          CLEAR     22  18  85 CALM      30.04S
MULLAN PASS    PTCLDY    24  21  88 SE9       29.92F WCI  14
ANACONDA         N/A     27  18  69 S6        30.04S WCI  20
DEER LODGE       N/A     21  18  86 CALM      30.07S
EUREKA           N/A     27  21  80 CALM      30.03F
HAMILTON         N/A     32  23  69 S6        30.05S WCI  26
PLAINS           N/A     26  19  74 CALM      30.04F
$$

MTZ008-052>055-241200-
SOUTHWEST MONTANA

CITY           SKY/WX    TMP DP  RH WIND       PRES   REMARKS
BOZEMAN        CLEAR     28  23  81 S5        30.05F
DILLON         CLEAR     30  20  66 S10       30.03F WCI  21
W YELLOWSTONE  CLOUDY    27  23  86 SW5       30.12R
ENNIS          CLEAR     32  21  64 S12G17    30.08F WCI  23
THREE FORKS      N/A     25  16  68 CALM      30.03F
TWIN BRIDGES     N/A     24  16  71 CALM      30.03S
$$

MTZ009-010-012-014-046-048-049-054-241200-
EAST SLOPES AND CENTRAL MONTANA

CITY           SKY/WX    TMP DP  RH WIND       PRES   REMARKS
CUT BANK       CLEAR     28  20  71 CALM      29.97F
GREAT FALLS    CLOUDY    26  16  65 S3        30.00F
MALMSTROM AFB  CLOUDY    26  20  77 S8        30.01F WCI  17
HELENA         CLEAR     28  22  78 CALM      30.04S
AUGUSTA          N/A     30  17  57 CALM      29.97F
BOWMANS CRNR     N/A     29  20  68 S10       29.97S WCI  20
CHOTEAU          N/A     27  18  69 MISG      30.00S
CONRAD           N/A     19  19 100 S2        30.00S
FAIRFIELD        N/A     29  18  64 S3        29.98F
POWER            N/A     23  17  78 CALM      29.98F
RAYNESFORD       N/A     25  18  74 E5        30.01S
$$

MTZ011-013-016-021-045-047-050-051-241200-
NORTH CENTRAL MONTANA

CITY           SKY/WX    TMP DP  RH WIND       PRES   REMARKS
HAVRE          CLEAR     28  23  81 CALM      30.01R
LEWISTOWN      CLEAR     25  18  74 SE5       30.02R
N BAR RANCH      N/A     30  21  69 W7        30.06R WCI  23
CHINOOK          N/A     28  25  86 CALM      30.01S
DENTON           N/A     27  20  76 SE13      29.99S WCI  16
FORT BENTON      N/A     27  19  74 MISG      30.03S
GEYSER           N/A     31  19  60 SW7       30.01S WCI  24
GRASS RANGE      N/A     32  22  66 SW6       30.00R WCI  26
STANFORD         N/A     29  20  68 W3        30.01R
WINIFRED         N/A     32  21  64 SW7       30.01R WCI  26
$$

MTZ017>020-022>027-061-062-241200-
NORTHEAST MONTANA

CITY           SKY/WX    TMP DP  RH WIND       PRES   REMARKS
GLASGOW        CLEAR     27  23  85 E5        30.00R
JORDAN           N/A     29  24  82 CALM      30.03R
SIDNEY         CLEAR     31  30  96 N5        30.05R
WOLF POINT     CLEAR     31  28  89 NE6       30.05R WCI  25
MALTA          CLEAR     28  25  86 W6        30.00R WCI  22
PLENTYWOOD       N/A     30  30 100 E9        30.06R WCI  22
POPLAR           N/A     34  30  86 N5        30.05R
SCOBEY           N/A     29  21  71 CALM      30.01
$$

MTZ028>42-056>058-241200-
SOUTHCENTRAL AND SOUTHEAST MONTANA

CITY           SKY/WX    TMP DP  RH WIND       PRES   REMARKS
BAKER          CLEAR     34  30  85 CALM      30.03R
BILLINGS       PTCLDY    37  32  82 SW13      30.05R WCI  29
LIVINGSTON     CLEAR     25  19  78 N5        30.03F
MILES CITY     CLEAR     37  32  82 SW6       30.04R
BIG TIMBER     CLEAR     32  21  64 SW12      30.07R WCI  23
EKALAKA          N/A     36  32  85 CALM      30.00
FORSYTH          N/A     37  36  93 CALM      30.04R
HARLOWTON        N/A     26  20  77 NW14      30.03R WCI  15
LAUREL           N/A     31  21  66 W2        30.03F
$$

REGIONAL REPORTS...DAKOTAS

CITY           SKY/WX    TMP DP  RH WIND       PRES   REMARKS
WILLISTON      CLEAR     27  25  92 CALM      30.06R
MINOT          CLEAR     25  22  88 NW7       30.06R WCI  17
DICKINSON      FOG       31  31 100 NE3       30.01R VSB 1/4
BEACH            N/A    N/A N/A N/A MISG        N/A
TIOGA            N/A     27  27 100 CALM      30.07R FOG
WATFORD CITY     N/A     28  28 100 CALM      30.05R
BISMARCK       CLOUDY    28  26  92 CALM      30.05R
GRAND FORKS    CLOUDY    31  29  92 N12       30.03R WCI  22
FARGO          CLOUDY    35  34  96 N8        30.00R FOG     WCI  29
BUFFALO SD       N/A     36  33  89 E3        29.95R
RAPID CITY     CLOUDY    43  37  79 N7        30.02R
$$

REGIONAL REPORTS...WYOMING/IDAHO/WASHINGTON

CITY           SKY/WX    TMP DP  RH WIND       PRES   REMARKS
GILLETTE       CLEAR     35  34  96 W14       30.06R WCI  26
SHERIDAN       CLEAR     29  25  85 CALM      30.07R
BUFFALO WY     CLOUDY    38  29  70 W8        30.07R
CODY           CLEAR     35  29  78 CALM      30.08R
YELLOWSTONE LA   N/A     16  14  92 CALM      30.14R
IDAHO FALLS    CLEAR     37  23  56 S13       30.12R WCI  29
SALMON         CLOUDY    28  21  74 CALM      30.07S
BOISE          PTCLDY    44  26  49 SE15      30.03S
SPOKANE        CLOUDY    37  29  72 NE9       29.90F WCI  30
$$

REGIONAL REPORTS...ALBERTA

CITY           SKY/WX    TMP DP  RH WIND       PRES   REMARKS
EDMONTON       CLEAR     23  19  86 SE7       29.94S WCI  15
CALGARY        MOCLDY    30  23  74 SE3       29.91F
LETHBRIDGE     CLEAR     25  19  80 W5        29.96F
MEDICINE HAT   CLEAR     27  23  86 VRB2      29.98R
WATERTON GATE    N/A     36  19  51 SW15G22     N/A  WCI  26
CARDSTON         N/A     25  18  74 S3          N/A
MILK RIVER       N/A     23  19  86 W2          N/A
ONEFOUR          N/A     25  19  80 E5          N/A
$$

REGIONAL REPORTS...SASKATCHEWAN

CITY           SKY/WX    TMP DP  RH WIND       PRES   REMARKS
SWIFT CURRENT  CLEAR     27  25  93 E12       29.97S WCI  16
REGINA         CLEAR     25  21  86 E6        30.06R WCI  18
SASKATOON      CLEAR     23  19  86 E3        30.10R
CYPRESS HILLS    N/A     32  19  59 S6          N/A  WCI  26
VAL MARIE        N/A     25  23  93 SW1         N/A
ROCKGLEN         N/A     30  28  93 E8          N/A  WCI  23
ASSINIBOIA       N/A     10   9  92 SE3         N/A
$$




USA.gov is the U.S. government's official web portal to all federal, state and local government web resources and services.